Foresight-5

operational
NORAD ID: 66302 Int'l Des: 2025-248 Owner: SP42 Country: UAE
NOTLE

About Foresight-5

Description loading...

Live Position

Loading 3D Globe...

Upcoming Passes

Altitude History

Altitude vs Time

uPlot chart will show altitude changes over time

Two-Line Element Set

1 66302U 25248K 25355.46648282 -.00001454 00000-0 -55431-4 0 9996
2 66302 45.4060 352.8332 0003665 117.9797 242.1460 15.18874458 8632
Epoch: Dec 21, 2025 • Age: 9 hours

Current Status

Altitude 523.8 km
Velocity 7.60 km/s
Sub-Earth Point -39.32°S, 99.19°W
Launch Date Nov 2, 2025
Age 0.1 years
Type other

Technical Details

Classification Payload
Mass 80.00 kg
Dry Mass 80.00 kg
Total Mass 80.00 kg
Length 0.80 m
Diameter 0.60 m
Span 1.50 m
Shape Box + pan
Manufacturer SP42
Bus Type ICEYE
Phase Status In Orbit
Owner/State SP42/UAE

Large Constellations

Loading constellations...